Location: Unspecified
(0.0000°N, 0.0000°E)
Time: 16:55:25
(UTC+00:00)

USA 200 - Visible Passes

Search period start: 15 April 2024 00:00
Search period end: 25 April 2024 00:00
Orbit: 1285 x 39069 km, 63.8° (Epoch: 07 March)

Date Brightness Start Highest point End Pass type
(mag) Time Alt. Az. Time Alt. Az. Time Alt. Az.
15 Apr ? 16:12:26 10° SW 16:40:08 46° WNW 03:38:04 10° S visible
16 Apr ? 16:07:58 10° SW 16:35:40 46° WNW 03:33:37 10° S visible
17 Apr ? 16:03:31 10° SW 16:31:12 46° WNW 03:29:09 10° S visible
18 Apr ? 15:59:03 10° SW 16:26:44 46° WNW 03:24:42 10° S visible
19 Apr ? 15:54:35 10° SW 16:22:17 46° WNW 03:20:14 10° S visible
20 Apr ? 15:50:08 10° SW 16:17:49 46° WNW 03:15:46 10° S visible
21 Apr ? 15:45:40 10° SW 16:13:21 46° WNW 03:11:19 10° S visible
22 Apr ? 15:41:13 10° SW 16:08:53 46° WNW 03:06:51 10° S visible
23 Apr ? 15:36:45 10° SW 16:04:25 46° WNW 03:02:24 10° S visible
